Cloud_Cover
0 0 0 0 0 0 0 0 0 8 32 68 64 44 20 0 0 0 0 0 0 20 56 92 92 92 92 92 92 92 92 92 92 92 92 92 92 92 92 92 92 92 92 92 92 92 92 92 92 92 92 92 92 92 92 88 92 92 92 92 92 92 92 88 92 92 92 92 92
0 0 0 0 0 0 0 0 0 0 12 20 32 32 32 32 8 0 0 0 0 0 20 76 92 92 92 92 92 92 92 92 92 92 92 92 92 92 92 92 92 92 92 92 92 92 92 92 92 92 92 92 92 92 92 92 92 92 92 92 92 92 92 92 92 92 92 100 92
0 0 0 0 0 0 0 0 0 0 0 20 56 56 32 20 12 8 0 0 0 12 32 56 80 88 88 88 88 80 76 76 80 88 92 92 92 92 92 92 92 92 92 92 92 92 92 92 92 92 92 92 92 92 92 92 92 92 92 92 92 92 92 92 92 92 92 92 92
0 0 0 0 0 0 0 0 0 0 20 76 88 68 44 32 44 36 20 0 0 8 32 76 88 88 88 88 92 92 88 80 68 68 76 80 92 92 92 92 92 92 92 92 92 92 92 92 92 92 92 92 92 92 92 92 92 92 92 92 92 92 92 92 92 92 92 92 92
0 0 0 0 0 0 0 0 0 0 0 0 8 32 56 64 56 56 48 24 44 48 56 88 88 92 92 92 92 92 92 92 92 92 92 92 92 92 92 92 92 92 92 92 92 92 92 92 92 92 92 92 92 92 92 92 92 92 92 92 92 92 92 92 92 92 92 92 92
0 0 0 0 0 0 0 0 0 0 0 0 0 12 36 56 76 68 64 88 88 88 92 92 92 92 92 92 92 92 92 92 92 92 92 92 92 92 92 92 92 92 92 92 92 92 92 100 92 92 92 92 92 92 92 92 92 92 92 92 92 92 92 92 92 92 92 92 92
0 0 0 0 0 0 0 0 0 0 0 0 0 36 76 44 36 64 92 92 88 92 92 88 92 92 92 92 92 92 92 92 92 92 92 88 92 88 88 88 92 92 92 92 92 92 92 100 92 92 92 92 92 92 92 92 92 92 92 92 92 92 92 92 92 92 92 92 92
0 0 0 0 0 0 0 0 0 0 0 0 0 0 12 64 56 76 92 92 92 88 88 80 88 80 76 76 88 88 88 88 92 92 92 88 92 88 88 88 88 92 92 92 92 92 88 92 92 92 92 92 92 92 92 92 92 92 92 92 92 92 92 92 92 92 92 92 92
0 0 0 0 0 0 0 0 0 0 0 0 0 0 20 76 88 92 92 92 88 88 88 88 92 88 80 76 88 88 88 92 92 92 92 92 92 92 92 92 92 92 88 76 88 88 80 92 92 92 92 92 92 92 92 92 92 92 92 92 92 92 92 92 92 92 92 92 92
0 0 0 0 0 0 0 0 0 0 0 0 0 0 0 20 76 92 92 92 92 92 92 88 92 92 92 92 92 92 92 92 92 92 92 92 92 92 88 92 92 92 92 92 92 80 76 80 92 92 92 92 92 92 92 92 92 92 92 92 92 92 92 92 92 92 92 92 92
0 0 0 0 0 0 0 0 0 0 0 0 0 0 20 92 92 92 92 92 92 92 92 88 92 92 92 92 92 92 92 92 92 92 92 92 92 88 88 92 92 92 92 88 80 88 92 92 88 92 92 92 92 92 92 92 92 92 92 92 92 92 92 92 92 92 92 92 92
0 0 0 0 0 0 0 0 0 0 0 0 0 0 20 80 92 92 92 92 92 92 92 92 92 92 92 92 92 92 92 92 92 92 92 92 92 88 80 92 92 92 88 76 68 80 88 88 68 80 92 92 92 92 92 92 92 92 92 92 92 92 92 92 92 92 92 92 92
8 8 8 0 0 0 0 0 0 0 0 0 0 0 20 68 88 92 92 92 92 92 92 92 92 92 92 92 80 80 88 92 92 92 92 92 92 92 92 92 88 88 88 80 76 68 68 68 76 80 92 92 92 92 92 88 92 92 92 92 92 92 92 92 92 92 92 92 92
12 24 24 12 24 12 0 0 0 8 0 0 0 0 24 88 92 92 92 92 92 92 92 92 92 92 92 92 88 80 80 92 92 92 92 92 92 92 92 92 88 88 88 88 80 76 68 56 64 76 88 92 92 92 92 92 92 92 92 92 92 92 92 92 92 92 92 92 92
8 20 32 32 56 44 20 20 12 24 24 0 0 8 32 76 92 92 92 92 92 92 92 92 92 92 92 92 92 92 88 92 92 92 92 92 92 92 92 88 88 80 80 80 80 80 76 68 64 64 68 80 88 92 92 92 92 92 92 92 92 92 92 92 92 92 92 92 92
20 24 24 32 32 36 44 36 36 48 56 24 24 32 44 92 92 92 92 92 92 92 92 92 92 92 92 92 92 92 92 92 92 92 92 92 92 92 92 88 80 76 68 68 76 88 88 88 76 68 64 76 80 88 88 88 92 92 92 92 92 92 92 92 92 92 92 92 92
20 24 32 32 24 32 44 48 56 48 48 64 68 48 48 92 92 92 92 92 92 92 92 92 92 92 92 92 92 92 92 92 92 92 92 92 92 92 88 80 68 56 56 68 76 88 92 92 92 88 80 76 80 80 80 80 88 88 88 88 92 92 92 92 92 92 92 92 92
20 32 44 48 36 32 36 64 48 36 36 56 80 68 64 92 92 92 92 92 92 92 92 92 92 92 92 92 92 92 92 92 92 92 92 92 92 88 80 68 68 68 68 68 76 88 92 92 92 92 92 88 88 88 88 88 88 88 88 88 92 92 92 92 88 88 88 88 88
48 68 76 76 68 64 48 64 44 48 64 56 88 80 80 92 92 92 92 92 92 92 92 92 92 92 92 92 92 92 92 92 92 92 92 92 92 92 88 88 88 88 80 80 88 88 88 80 92 92 92 92 92 92 92 92 92 92 92 92 92 92 92 88 88 88 88 88 88
68 88 80 88 92 80 64 48 64 64 56 44 48 48 48 56 88 92 92 92 92 92 92 92 92 92 92 92 92 92 92 92 92 92 92 92 92 92 92 92 88 88 88 92 92 92 88 88 92 92 92 92 92 92 92 92 92 92 92 88 88 88 92 92 92 88 88 88 88
68 88 88 88 92 88 80 64 64 56 44 36 32 24 24 48 80 92 92 92 92 92 92 92 92 92 92 92 92 92 92 92 92 92 92 92 92 92 92 92 80 88 92 92 88 88 92 92 92 92 88 76 88 92 92 92 92 88 88 88 88 92 92 92 92 92 88 88 88
88 92 92 88 92 92 92 80 68 76 80 68 48 44 48 56 76 88 92 92 92 92 92 92 92 92 92 92 92 100 92 92 92 92 92 92 92 92 92 92 88 92 92 88 80 88 88 92 88 80 68 56 64 76 88 88 88 88 88 88 88 92 92 88 92 92 88 88 88
88 92 92 92 92 92 88 92 88 92 92 88 48 44 56 56 64 80 92 92 92 92 92 92 92 92 92 92 92 92 92 92 92 92 92 92 92 92 92 92 92 92 80 76 68 68 68 76 76 64 56 56 56 64 76 88 88 88 88 80 88 88 88 88 88 88 88 88 88
92 92 92 92 92 88 88 88 92 92 92 92 80 76 68 68 80 88 92 92 92 92 92 92 92 92 92 92 92 92 92 92 92 92 92 92 92 92 92 92 92 80 68 64 56 56 56 56 56 48 48 56 56 56 64 80 80 80 88 88 80 80 80 80 80 80 88 88 88
92 92 92 92 88 88 88 88 92 92 92 92 92 80 68 88 92 92 92 92 92 92 92 92 92 92 92 92 92 92 92 92 92 92 92 92 88 88 92 92 80 68 64 56 56 48 44 36 36 36 36 44 44 44 48 48 68 76 80 80 80 76 76 80 80 80 80 80 80
92 92 92 92 92 92 92 92 92 92 92 92 92 80 76 92 92 92 92 92 92 92 92 92 92 92 92 92 92 92 92 92 92 92 88 80 80 88 92 88 68 56 56 56 56 48 44 36 36 32 32 32 32 36 44 44 48 64 68 68 64 68 68 76 76 76 80 80 80
92 92 92 92 92 92 92 92 92 92 92 92 92 92 92 92 92 92 92 92 92 92 92 92 92 92 92 92 92 92 92 92 92 92 88 68 68 76 80 76 68 56 48 56 48 48 48 48 32 24 20 20 32 36 36 36 36 44 56 56 56 56 64 64 68 68 68 68 76
92 92 92 92 92 92 92 92 92 92 92 92 92 92 92 92 92 92 92 92 92 92 92 92 92 92 92 92 92 92 92 92 92 92 88 68 76 76 64 56 56 48 44 44 48 48 44 36 32 24 20 20 20 32 36 36 32 32 36 48 44 48 64 64 64 68 68 76 76
88 88 92 92 92 92 92 92 92 92 88 88 88 92 92 92 92 92 92 92 92 92 92 92 92 92 92 92 92 92 92 92 92 88 80 76 80 68 56 48 48 44 36 44 44 48 44 32 32 24 20 12 12 24 44 48 48 44 36 44 56 56 56 56 56 56 64 64 68
88 92 92 92 88 88 88 88 92 92 88 88 88 92 92 92 92 92 92 92 92 92 92 92 92 92 92 92 92 92 92 92 92 88 80 76 76 68 64 56 48 44 44 36 36 36 36 36 36 24 20 24 36 44 48 56 48 48 48 56 48 48 44 48 48 56 56 56 64
80 92 92 92 92 88 88 88 92 92 92 88 88 92 92 92 92 92 92 92 92 92 92 92 92 92 92 92 92 92 92 92 92 92 92 88 88 80 76 68 64 56 48 36 36 32 32 36 36 32 32 36 36 44 48 48 56 56 56 48 44 44 44 44 44 48 48 48 48
80 80 88 92 92 92 88 88 92 92 92 92 88 92 92 92 68 64 76 92 92 92 92 92 92 92 92 92 92 92 92 92 92 92 92 92 92 92 88 80 76 68 56 44 44 36 36 36 44 44 48 56 48 44 48 56 56 56 56 48 44 36 36 36 36 44 44 44 36
92 88 88 92 92 92 92 88 92 92 92 92 92 92 92 92 64 64 80 92 92 92 92 92 92 92 92 92 92 92 92 92 92 92 92 92 92 92 92 88 80 76 68 56 48 48 44 48 56 56 56 56 48 44 44 48 56 56 56 56 48 48 44 44 36 36 36 44 44
80 92 92 92 92 92 92 88 88 92 92 92 88 88 88 92 76 80 88 92 92 92 92 92 92 92 92 92 92 92 92 92 92 92 92 92 92 92 92 92 88 80 76 68 48 48 48 48 56 56 56 56 56 48 44 48 56 56 48 64 48 48 48 48 44 44 44 44 44
92 92 92 92 92 92 92 92 88 88 92 92 92 88 88 92 92 92 92 92 92 92 92 92 92 92 92 92 92 92 92 92 92 92 92 92 92 92 92 92 92 88 80 80 80 76 68 64 64 64 64 64 56 56 48 48 56 56 56 56 48 48 48 44 44 44 44 44 36
88 92 92 92 92 92 92 92 88 88 92 92 88 80 80 92 92 92 92 92 92 92 92 92 92 92 92 92 92 92 92 92 92 92 92 92 92 92 92 92 92 88 88 80 80 80 76 68 68 68 68 64 64 56 56 56 64 56 56 56 56 48 48 44 44 36 36 36 36
76 80 88 88 92 92 92 92 92 88 88 92 92 92 92 92 92 92 92 92 92 92 92 92 92 92 92 92 92 92 92 92 92 92 92 92 92 92 92 92 92 88 88 88 80 80 76 76 76 68 68 68 68 64 56 56 56 56 48 48 56 48 48 36 36 36 36 36 36
56 68 80 92 92 92 92 92 92 92 92 92 92 92 92 92 92 92 92 92 92 92 92 92 92 92 92 92 92 92 92 92 92 92 92 92 92 92 92 92 92 88 88 88 88 88 80 76 76 68 68 68 68 68 64 44 36 36 36 32 44 44 44 44 44 36 36 44 36
68 80 88 92 92 92 92 92 92 92 92 92 92 92 92 92 92 92 92 92 92 92 92 92 92 92 92 92 92 92 92 92 92 92 92 92 92 92 92 92 92 92 92 92 92 88 80 80 76 76 68 64 64 64 48 32 24 32 32 32 32 36 44 44 44 36 36 32 24
80 88 92 92 92 92 88 92 88 92 92 92 92 92 92 92 92 92 92 92 92 92 92 92 92 92 92 92 92 92 92 92 92 92 92 92 92 88 88 92 92 92 92 92 92 88 80 80 76 76 64 48 48 44 32 24 24 24 32 32 32 32 36 36 36 32 24 20 20
88 92 92 92 92 92 88 80 88 92 92 92 92 92 92 92 92 92 92 92 92 92 92 92 92 92 92 92 92 92 92 92 92 92 92 92 88 88 88 88 92 92 92 92 88 88 80 88 76 68 56 44 36 32 24 32 32 32 32 36 36 36 36 32 32 32 32 24 24